Location: *
(51.8167°N, 12.5000°E)
Time: 05:32:19
(UTC+00:00)

Mayak - Pass Details

Date: 16 September 2019
Orbit: 582 x 602 km, 97.6° (Epoch: 22 October)

Event Time Altitude Azimuth Distance (km) Brightness Sun altitude
Rises 23:01:45 0° 4° (N) 2,820 3.2 -35.7°
Reaches altitude 10° 23:04:12 10° 351° (N) 1,914 2.1 -35.7°
Enters shadow 23:05:08 15° 342° (NNW) 1,615 1.6 -35.7°
